map of WLG home
WLG - Airport
Location
City:  Wellington, Wellington (Te Whanga-nui-a-Tara), New Zealand
Name:Wellington International Airport
ICAO:NZWN
IATA:WLG

Details
Type:Airport (Aerodrome, Airfield)
Use:Public/Civil, International (customs port of entry)
Latitude:41°19'38"S (-41.327221)
Longitude:174°48'19"E (174.805278)
Elevation:41 ft (12 m)
Variation:22.56°E (WMM2015 magnetic declination)
0.06° annual change
Runways:1
Longest:6352 × 148 ft (1936 × 45 m), paved

Time
Time Zone:UTC+12 (DST+13)
Local Time:

Weather
METAR:NZWN 280630Z AUTO 19010KT 9999 FEW016/// BKN027/// 11/08 Q1024 BECMG SCT014
TAF:NZWN 271703Z 2718/2818 18015KT 9999 -SHRA BKN030
FM281200 18005KT 9999 BKN030

Related Locations
Nearby:
Farthest:SLM: 12401 mi / 19958 km
Salamanca [Matacán], CL, ES

Find:

   beyond  
but within

Other Information
Maps:
NOTAMs:
Links:
Sources:

  
flag of New Zealand   

Sectional Chart

Flight Planning
at skyvector.com

Satellite Image

Google Maps Satellite view

 

Copyright © 2004-2017 Karl L. Swartz. All rights reserved.
The Great Circle Mapper name and logo are trademarks of the Great Circle Mapper.
All other trademarks mentioned herein belong to their respective owners.
Please see credits for attibutions and further copyright information.

  Follow gcmap on Facebook Follow gcmap on Twitter Follow gcmap on Google+ GCmap on LinkedIn

hCard Microformat

Geo Microformat